User: anonymous   Login
Location: Degerfors
(59.2294°N, 14.4406°E)
Time: 15:23:54
(UTC+01:00)
Language:

ISS - Orbit

View from above orbital plane
View from above orbital plane
View from above satellite
View from above satellite

Ground track
Ground track

The orbit data is extracted from the following two-line orbital elements,

1 25544U 98067A   22018.19594545  .00006332  00000-0  12075-3 0  9997
2 25544  51.6444 359.3666 0006705  33.3496 335.2671 15.49533907321920
Epoch (UTC): 18 January 2022 04:42:09
Eccentricity: 0.0006705
inclination: 51.6444°
perigee height: 413 km
apogee height: 422 km
right ascension of ascending node: 359.3666°
argument of perigee: 33.3496°
revolutions per day: 15.49533907
mean anomaly at epoch: 335.2671°
orbit number at epoch: 32192

The dashed part of the orbit path shows where the satellite is in the earth's shadow,  

DLR